Powrót do katalogu

STARLINK-34014

AktywnyŁącznośćVLEO
NORAD 63942·PAYLOAD·🇺🇸 United States

Wystrzelony May 13, 2025 z Vandenberg Space Force Base

Loading…

Następne Przeloty (najbliższe 24 godziny)

TLE

ŚwieżeSource: CelesTrak SupGP

Epoka: Sep 14, 2026, 21:23 UTC

1 63942C 25098S   26257.89145833 -.00040850  00000+0 -14207-2 0  2572
2 63942  70.0000 155.6697 0003292 268.5810 202.8488 15.29606876    11

Śledź STARLINK-34014 w czasie rzeczywistym z AllMySat

Download on the App Store